FW6650 Weather Reports


Display with metric or nautical units.
time (UTC)temp
F
wind
direction
speed
MPH
gust
MPH
rain 1hr
in
rain 24hr
in
rain mn
in
humidity
%
barometer
mb
20260503033525 45 0 2.0 6.0 0.00 0.00 0.00 76 1014.1
20260503033038 45 13 1.0 5.0 0.00 0.00 0.00 76 1014.1
20260503032525 45 23 2.0 6.0 0.00 0.00 0.00 76 1014.0
20260503032025 45 336 2.0 6.0 0.00 0.00 0.00 75 1014.0
20260503031537 45 310 2.0 6.0 0.00 0.00 0.00 75 1013.9
20260503031022 45 352 0.0 4.0 0.00 0.00 0.00 76 1013.8
20260503030526 45 350 2.0 6.0 0.00 0.00 0.00 77 1013.9
20260503030043 45 350 1.0 6.0 0.00 0.00 0.00 77 1013.9
20260503025526 45 351 2.0 6.0 0.00 0.00 0.00 77 1013.9
20260503025028 45 304 2.0 4.0 0.00 0.00 0.00 77 1014.0
20260503024536 45 257 0.0 5.0 0.00 0.00 0.00 77 1014.1
20260503024026 46 257 2.0 8.0 0.00 0.00 0.00 77 1014.0
20260503023526 46 259 3.0 9.0 0.00 0.00 0.00 76 1014.1
20260503023040 46 255 4.0 9.0 0.00 0.00 0.00 75 1014.1
20260503022525 46 0 1.0 7.0 0.00 0.00 0.00 75 1014.2
20260503022029 46 215 4.0 7.0 0.00 0.00 0.00 76 1014.1
20260503021533 46 160 1.0 4.0 0.00 0.00 0.00 76 1014.3
20260503021029 46 106 1.0 4.0 0.00 0.00 0.00 76 1014.3
20260503020524 45 0 1.0 8.0 0.00 0.00 0.00 75 1014.2
20260503020037 46 360 1.0 13.0 0.00 0.00 0.00 75 1014.1
20260503015523 46 327 5.0 13.0 0.00 0.00 0.00 74 1014.1
20260503015022 46 352 6.0 13.0 0.00 0.00 0.00 73 1014.1
20260503014543 46 273 2.0 7.0 0.00 0.00 0.00 73 1014.1
20260503014024 46 246 3.0 5.0 0.00 0.00 0.00 74 1014.0
20260503013522 46 265 0.0 4.0 0.00 0.00 0.00 74 1013.9
20260503013038 46 0 1.0 7.0 0.00 0.00 0.00 75 1014.1
20260503012600 46 265 2.0 8.0 0.00 0.00 0.00 74 1014.1
20260503012030 46 208 4.0 8.0 0.00 0.00 0.00 76 1013.9
20260503011534 45 188 1.0 8.0 0.00 0.00 0.00 76 1013.9
20260503011027 45 175 4.0 8.0 0.00 0.00 0.00 76 1013.9
20260503010527 45 242 2.0 6.0 0.00 0.00 0.00 77 1014.1
20260503010033 45 186 1.0 4.0 0.00 0.00 0.00 78 1014.0
20260503005528 45 215 2.0 6.0 0.00 0.00 0.00 77 1014.0
20260503005028 45 239 2.0 6.0 0.00 0.00 0.00 77 1014.0
20260503004546 45 223 2.0 5.0 0.00 0.00 0.00 77 1013.8
20260503004027 45 190 1.0 4.0 0.00 0.00 0.00 77 1014.0
20260503003527 45 209 0.0 3.0 0.00 0.00 0.00 77 1014.0
20260503003047 45 217 0.0 5.0 0.00 0.00 0.00 78 1014.1
20260503002528 45 0 1.0 7.0 0.00 0.00 0.00 77 1014.0
20260503002027 45 240 3.0 7.0 0.00 0.00 0.00 78 1014.1
20260503001544 45 247 2.0 5.0 0.00 0.00 0.00 78 1014.1
20260503001027 45 290 1.0 9.0 0.00 0.00 0.00 78 1014.1
20260503000527 45 292 2.0 9.0 0.00 0.00 0.00 77 1014.1
20260503000045 45 265 2.0 9.0 0.00 0.00 0.00 77 1014.4
20260502235527 45 270 4.0 9.0 0.00 0.00 0.00 77 1014.5
20260502235029 46 250 4.0 8.0 0.00 0.00 0.00 76 1014.6
20260502234549 46 0 3.0 10.0 0.00 0.00 0.00 76 1014.5
20260502234028 46 267 2.0 10.0 0.00 0.00 0.00 77 1014.7
20260502233529 46 232 4.0 10.0 0.00 0.00 0.00 77 1014.7
20260502233036 46 271 2.0 7.0 0.00 0.00 0.00 77 1014.8
20260502232527 46 277 2.0 5.0 0.00 0.00 0.00 77 1014.9
20260502232027 46 283 1.0 6.0 0.00 0.00 0.00 77 1014.9
20260502231536 46 286 2.0 6.0 0.00 0.00 0.00 77 1014.8
20260502231027 46 290 1.0 5.0 0.00 0.00 0.00 77 1015.0
20260502230527 46 296 0.0 5.0 0.00 0.00 0.00 78 1015.0
20260502230043 46 301 1.0 7.0 0.00 0.00 0.00 78 1015.0
20260502225530 46 297 2.0 10.0 0.00 0.00 0.00 77 1015.1
20260502225029 46 313 3.0 10.0 0.00 0.00 0.00 77 1015.2
20260502224538 46 295 5.0 10.0 0.00 0.00 0.00 75 1015.2
20260502224031 47 325 6.0 10.0 0.00 0.00 0.00 74 1015.2
20260502223527 47 350 4.0 10.0 0.00 0.00 0.00 74 1015.4
20260502223042 47 323 2.0 10.0 0.00 0.00 0.00 73 1015.4
20260502222528 47 286 5.0 12.0 0.00 0.00 0.00 72 1015.3
20260502222027 48 326 7.0 20.0 0.00 0.00 0.00 70 1015.3
20260502221546 48 325 12.0 20.0 0.00 0.00 0.00 68 1015.3
20260502221027 48 355 7.0 16.0 0.00 0.00 0.00 66 1015.5
20260502220528 48 344 3.0 7.0 0.00 0.00 0.00 66 1015.2
20260502220042 48 19 2.0 7.0 0.00 0.00 0.00 66 1015.2
20260502215527 48 301 2.0 8.0 0.00 0.00 0.00 66 1015.3
20260502215027 48 0 1.0 10.0 0.00 0.00 0.00 64 1015.3
20260502214600 49 128 2.0 10.0 0.00 0.00 0.00 66 1015.4
20260502214027 49 35 0.0 4.0 0.00 0.00 0.00 61 1015.9
20260502213528 49 0 0.0 3.0 0.00 0.00 0.00 59 1015.6
20260502213037 49 0 0.0 3.0 0.00 0.00 0.00 57 1015.6
20260502212527 49 0 1.0 3.0 0.00 0.00 0.00 57 1015.4
20260502212026 49 0 0.0 1.0 0.00 0.00 0.00 57 1015.5
20260502211535 49 0 0.0 1.0 0.00 0.00 0.00 56 1015.5
20260502211027 49 0 0.0 1.0 0.00 0.00 0.00 56 1015.5
20260502210527 49 0 0.0 4.0 0.00 0.00 0.00 56 1015.4
20260502210039 49 0 0.0 4.0 0.00 0.00 0.00 54 1015.4
20260502205527 49 292 0.0 4.0 0.00 0.00 0.00 54 1015.6
20260502205030 49 292 0.0 4.0 0.00 0.00 0.00 54 1015.6
20260502204540 49 0 0.0 5.0 0.00 0.00 0.00 54 1015.6
20260502204028 49 288 2.0 5.0 0.00 0.00 0.00 54 1015.6
20260502203529 49 290 2.0 4.0 0.00 0.00 0.00 54 1015.7
20260502203055 49 0 0.0 0.0 0.00 0.00 0.00 55 1015.7
20260502202529 49 0 0.0 0.0 0.00 0.00 0.00 54 1015.7
20260502202027 49 0 0.0 0.0 0.00 0.00 0.00 55 1015.7
20260502201535 49 0 0.0 0.0 0.00 0.00 0.00 54 1015.8
20260502201027 49 0 0.0 3.0 0.00 0.00 0.00 54 1015.8
20260502200527 49 0 0.0 3.0 0.00 0.00 0.00 53 1015.8
20260502200041 49 0 1.0 3.0 0.00 0.00 0.00 54 1016.0
20260502195527 49 205 0.0 3.0 0.00 0.00 0.00 54 1016.0
20260502195027 49 0 0.0 3.0 0.00 0.00 0.00 54 1016.0
20260502194542 50 209 0.0 6.0 0.00 0.00 0.00 53 1015.8
20260502194027 50 216 1.0 6.0 0.00 0.00 0.00 52 1015.9
20260502193527 50 202 1.0 4.0 0.00 0.00 0.00 53 1015.9
20260502193034 50 204 1.0 4.0 0.00 0.00 0.00 53 1015.8
20260502192528 50 216 2.0 5.0 0.00 0.00 0.00 53 1015.8
20260502192026 50 226 1.0 5.0 0.00 0.00 0.00 52 1015.8
20260502191542 50 249 1.0 5.0 0.00 0.00 0.00 52 1015.8
20260502191026 50 0 3.0 5.0 0.00 0.00 0.00 52 1015.8
20260502190526 50 223 2.0 6.0 0.00 0.00 0.00 53 1015.8
20260502190036 50 221 0.0 6.0 0.00 0.00 0.00 52 1015.8
20260502185527 50 220 4.0 6.0 0.00 0.00 0.00 52 1015.8
20260502185029 50 254 1.0 3.0 0.00 0.00 0.00 52 1015.8
20260502184535 50 268 0.0 4.0 0.00 0.00 0.00 52 1015.7
20260502184027 50 267 0.0 4.0 0.00 0.00 0.00 53 1015.7
20260502183527 50 311 0.0 4.0 0.00 0.00 0.00 52 1015.7
20260502183041 50 0 1.0 5.0 0.00 0.00 0.00 51 1015.7
20260502182527 50 313 0.0 5.0 0.00 0.00 0.00 51 1015.6
20260502182027 50 314 1.0 5.0 0.00 0.00 0.00 51 1015.6
20260502181534 51 311 0.0 9.0 0.00 0.00 0.00 51 1015.5
20260502181027 50 313 3.0 10.0 0.00 0.00 0.00 51 1015.5
20260502180529 50 342 3.0 10.0 0.00 0.00 0.00 51 1015.4
20260502164026 52 19 11.0 21.0 0.00 0.00 0.00 48 1015.3
20260502163526 52 17 12.0 19.0 0.00 0.00 0.00 47 1015.4
20260502163041 52 296 12.0 17.0 0.00 0.00 0.00 47 1015.3
20260502162531 52 321 8.0 20.0 0.00 0.00 0.00 47 1015.3
20260502162026 52 5 11.0 27.0 0.00 0.00 0.00 46 1015.3
20260502161548 53 28 10.0 27.0 0.00 0.00 0.00 45 1015.3
20260502161026 53 19 15.0 27.0 0.00 0.00 0.00 45 1015.2
20260502160526 53 338 12.0 21.0 0.00 0.00 0.00 45 1015.4
20260502152026 52 328 10.0 21.0 0.00 0.00 0.00 48 1015.3
20260502151533 52 29 11.0 21.0 0.00 0.00 0.00 49 1015.5
20260502151026 52 360 7.0 20.0 0.00 0.00 0.00 49 1015.6
20260502150528 52 330 12.0 20.0 0.00 0.00 0.00 48 1015.6
20260502130526 53 61 11.0 24.0 0.00 0.00 0.00 45 1015.9
20260502123527 52 71 10.0 23.0 0.00 0.00 0.00 49 1016.1
20260502123059 52 350 13.0 23.0 0.00 0.00 0.00 48 1016.0
20260502122526 53 343 11.0 23.0 0.00 0.00 0.00 48 1016.1
20260502122026 53 360 11.0 23.0 0.00 0.00 0.00 47 1016.0
20260502121533 54 322 10.0 24.0 0.00 0.00 0.00 48 1016.0
20260502121026 53 37 11.0 24.0 0.00 0.00 0.00 48 1015.9
20260502120526 53 344 15.0 24.0 0.00 0.00 0.00 48 1016.0
20260502115529 53 329 13.0 24.0 0.00 0.00 0.00 48 1016.1
20260502115027 53 355 12.0 24.0 0.00 0.00 0.00 47 1016.1
20260502114534 54 344 11.0 24.0 0.00 0.00 0.00 47 1016.0
20260502114027 54 5 15.0 24.0 0.00 0.00 0.00 48 1015.9
20260502113530 53 30 13.0 29.0 0.00 0.00 0.00 49 1016.0
20260502113044 53 350 14.0 29.0 0.00 0.00 0.00 48 1016.0
20260502112526 54 334 12.0 23.0 0.00 0.00 0.00 50 1016.0
20260502112026 53 19 10.0 19.0 0.00 0.00 0.00 51 1016.1
20260502111536 53 341 9.0 21.0 0.00 0.00 0.00 52 1016.2
20260502111026 51 334 10.0 21.0 0.00 0.00 0.00 54 1016.3
20260502110526 51 329 14.0 24.0 0.00 0.00 0.00 54 1016.3
20260502110033 51 350 12.0 26.0 0.00 0.00 0.00 55 1016.3
20260502105527 51 314 15.0 26.0 0.00 0.00 0.00 54 1016.5
20260502105027 52 5 15.0 25.0 0.00 0.00 0.00 54 1016.6
20260502104540 53 15 9.0 21.0 0.00 0.00 0.00 55 1016.6
20260502104026 52 342 10.0 21.0 0.00 0.00 0.00 55 1016.6
20260502103527 52 360 12.0 27.0 0.00 0.00 0.00 54 1016.7
20260502103033 52 37 14.0 27.0 0.00 0.00 0.00 54 1016.8
20260502102526 52 313 10.0 19.0 0.00 0.00 0.00 55 1016.8
20260502102026 52 360 9.0 24.0 0.00 0.00 0.00 55 1016.8
20260502101536 52 323 11.0 25.0 0.00 0.00 0.00 54 1016.7
20260502101026 53 355 12.0 25.0 0.00 0.00 0.00 54 1016.7
20260502100526 52 329 7.0 19.0 0.00 0.00 0.00 56 1016.7
20260502091024 52 67 7.0 24.0 0.00 0.00 0.00 57 1016.5
20260502090526 52 350 12.0 25.0 0.00 0.00 0.00 57 1016.6
20260502071027 53 30 12.0 26.0 0.00 0.00 0.00 55 1016.2
20260502070526 53 49 9.0 19.0 0.00 0.00 0.00 55 1016.1
20260502070034 53 10 10.0 23.0 0.00 0.00 0.00 56 1016.2
20260502065526 53 331 12.0 23.0 0.00 0.00 0.00 56 1016.1
20260502065027 52 340 10.0 22.0 0.00 0.00 0.00 56 1016.2
20260502064546 52 44 11.0 22.0 0.00 0.00 0.00 56 1016.1
20260502064027 52 33 12.0 24.0 0.00 0.00 0.00 55 1016.2
20260502063527 52 28 12.0 24.0 0.00 0.00 0.00 54 1016.4
20260502063035 52 333 10.0 22.0 0.00 0.00 0.00 55 1016.3
20260502062526 52 13 12.0 24.0 0.00 0.00 0.00 54 1016.3
20260502062025 52 20 13.0 24.0 0.00 0.00 0.00 53 1016.3
20260502061534 53 34 8.0 20.0 0.00 0.00 0.00 56 1016.3
20260502061025 52 355 11.0 20.0 0.00 0.00 0.00 56 1016.3
20260502060526 52 5 11.0 20.0 0.00 0.00 0.00 56 1016.2
20260502060033 52 309 8.0 20.0 0.00 0.00 0.00 58 1016.3
20260502055526 51 332 11.0 20.0 0.00 0.00 0.00 59 1016.3
20260502055027 51 332 10.0 22.0 0.00 0.00 0.00 60 1016.1
20260502054537 51 351 12.0 22.0 0.00 0.00 0.00 60 1016.1
20260502054026 51 350 11.0 21.0 0.00 0.00 0.00 62 1016.4
20260502053526 51 63 11.0 20.0 0.00 0.00 0.00 62 1016.4
20260502053042 51 11 8.0 20.0 0.00 0.00 0.00 65 1016.4
20260502052526 50 11 9.0 17.0 0.00 0.00 0.00 66 1016.5
20260502052026 50 33 10.0 20.0 0.00 0.00 0.00 65 1016.4
20260502051542 50 36 8.0 20.0 0.00 0.00 0.00 66 1016.4
20260502051025 50 339 8.0 20.0 0.00 0.00 0.00 65 1016.3
20260502050526 50 355 10.0 19.0 0.00 0.00 0.00 65 1016.2
20260502050042 50 26 7.0 24.0 0.00 0.00 0.00 65 1016.3
20260502045528 50 39 11.0 24.0 0.00 0.00 0.00 65 1016.3
20260502045027 50 30 8.0 18.0 0.00 0.00 0.00 65 1016.3
20260502044539 50 24 10.0 19.0 0.00 0.00 0.00 65 1016.4
20260502044025 50 28 11.0 19.0 0.00 0.00 0.00 65 1016.5
20260502043525 50 346 10.0 19.0 0.00 0.00 0.00 65 1016.3
20260502043037 50 338 9.0 15.0 0.00 0.00 0.00 66 1016.2
20260502042526 50 355 6.0 17.0 0.00 0.00 0.00 67 1016.2
20260502042026 50 32 6.0 17.0 0.00 0.00 0.00 66 1016.2
20260502041534 50 22 8.0 16.0 0.00 0.00 0.00 66 1016.3
20260502041026 50 355 7.0 13.0 0.00 0.00 0.00 67 1016.3
20260502040526 50 57 7.0 14.0 0.00 0.00 0.00 67 1016.3
20260502040039 50 338 8.0 19.0 0.00 0.00 0.00 67 1016.4
20260502035526 50 5 9.0 19.0 0.00 0.00 0.00 68 1016.4
20260502035026 50 45 9.0 17.0 0.00 0.00 0.00 69 1016.3
20260502034537 49 40 8.0 16.0 0.00 0.00 0.00 71 1016.3
20260502034025 49 32 8.0 15.0 0.00 0.00 0.00 71 1016.3